SAS054 ESSA-ESNN

Flight info

Callsign SAS054
Flight time 0h 46m
Altitude FL240
Route HAPZI RESNA T314 ZIPCO
Aircraft AT76/M-S/N

Departure

Time 2026-05-06 11:41
Airport Stockholm-Arlanda Airport (ESSA)

Arrival

Time 2026-05-06 12:27
Airport Sundsvall-Härnösand Airport (ESNN)
Time Latitude Longitude Altitude Speed Heading
2026-05-06 11:24 59.65139 17.92717 131 ft 0 kts 188°
2026-05-06 11:32 59.65144 17.92719 131 ft 2 kts 188°
2026-05-06 11:32 59.65161 17.92724 131 ft 3 kts 188°
2026-05-06 11:33 59.65176 17.92729 131 ft 2 kts 188°
2026-05-06 11:33 59.65191 17.92742 131 ft 3 kts 232°
2026-05-06 11:33 59.65195 17.92773 131 ft 0 kts 277°
2026-05-06 11:34 59.65209 17.92652 132 ft 14 kts 284°
2026-05-06 11:34 59.65221 17.92602 131 ft 4 kts 304°
2026-05-06 11:35 59.65227 17.92584 131 ft 0 kts 304°
2026-05-06 11:35 59.65245 17.92534 132 ft 9 kts 302°
2026-05-06 11:35 59.65269 17.92456 131 ft 10 kts 302°
2026-05-06 11:35 59.65318 17.92312 132 ft 9 kts 313°
2026-05-06 11:36 59.65356 17.92287 131 ft 9 kts 359°
2026-05-06 11:36 59.65438 17.92302 132 ft 16 kts 10°
2026-05-06 11:36 59.65530 17.92337 132 ft 15 kts 11°
2026-05-06 11:36 59.65622 17.92370 131 ft 15 kts 10°
2026-05-06 11:37 59.65736 17.92412 131 ft 15 kts 10°
2026-05-06 11:37 59.65895 17.92471 132 ft 24 kts 11°
2026-05-06 11:37 59.66057 17.92530 132 ft 27 kts 10°
2026-05-06 11:37 59.66242 17.92597 132 ft 23 kts 11°
2026-05-06 11:38 59.66393 17.92653 132 ft 23 kts
2026-05-06 11:38 59.66525 17.92619 132 ft 15 kts 342°
2026-05-06 11:38 59.66611 17.92531 132 ft 15 kts 317°
2026-05-06 11:38 59.66646 17.92388 132 ft 7 kts 246°
2026-05-06 11:39 59.66612 17.92338 131 ft 8 kts 207°
2026-05-06 11:39 59.66565 17.92328 132 ft 9 kts 172°
2026-05-06 11:39 59.66503 17.92329 132 ft 8 kts 188°
2026-05-06 11:39 59.66249 17.92239 132 ft 87 kts 192°
2026-05-06 11:40 59.65411 17.91935 132 ft 151 kts 191°
2026-05-06 11:40 59.64263 17.91531 268 ft 185 kts 191°
2026-05-06 11:40 59.63215 17.91174 505 ft 209 kts 190°
2026-05-06 11:40 59.62016 17.90648 724 ft 228 kts 199°
2026-05-06 11:41 59.60610 17.88991 994 ft 245 kts 221°
2026-05-06 11:41 59.59555 17.86267 1257 ft 258 kts 242°
2026-05-06 11:41 59.59033 17.82843 1515 ft 267 kts 262°
2026-05-06 11:41 59.59080 17.79547 1760 ft 273 kts 277°
2026-05-06 11:42 59.59287 17.76760 1962 ft 278 kts 278°
2026-05-06 11:42 59.59612 17.73038 2205 ft 268 kts 280°
2026-05-06 11:42 59.59836 17.70700 2367 ft 262 kts 280°
2026-05-06 11:42 59.60182 17.67245 2609 ft 253 kts 281°
2026-05-06 11:43 59.60198 17.67082 2621 ft 252 kts 281°
2026-05-06 11:43 59.60521 17.63941 2814 ft 247 kts 281°
2026-05-06 11:43 59.60763 17.61598 2908 ft 246 kts 281°
2026-05-06 11:44 59.62162 17.56143 2996 ft 251 kts 315°
2026-05-06 11:44 59.63620 17.54274 3001 ft 254 kts 336°
2026-05-06 11:44 59.65351 17.53567 3001 ft 258 kts 358°
2026-05-06 11:44 59.67118 17.54147 3001 ft 260 kts 19°
2026-05-06 11:45 59.68678 17.55951 3001 ft 262 kts 40°
2026-05-06 11:45 59.69399 17.57462 3001 ft 263 kts 52°
2026-05-06 11:45 59.70384 17.60546 3015 ft 264 kts 57°
2026-05-06 11:45 59.71631 17.63182 3110 ft 260 kts 37°
2026-05-06 11:46 59.72441 17.64265 3260 ft 255 kts 31°
2026-05-06 11:46 59.74000 17.65797 3508 ft 248 kts 22°
2026-05-06 11:46 59.75603 17.66924 3754 ft 242 kts 16°
2026-05-06 11:46 59.77220 17.67714 3999 ft 238 kts
2026-05-06 11:47 59.78418 17.67997 4185 ft 234 kts
2026-05-06 11:47 59.79699 17.68391 4384 ft 232 kts 11°
2026-05-06 11:47 59.80825 17.68913 4563 ft 230 kts 13°
2026-05-06 11:48 59.81192 17.69102 4622 ft 230 kts 14°
2026-05-06 11:48 59.82718 17.69949 4869 ft 227 kts 15°
2026-05-06 11:48 59.84121 17.70770 5098 ft 225 kts 16°
2026-05-06 11:48 59.85613 17.71663 5346 ft 223 kts 16°
2026-05-06 11:49 59.86912 17.72446 5573 ft 228 kts 16°
2026-05-06 11:49 59.88270 17.73265 5805 ft 240 kts 16°
2026-05-06 11:49 59.89899 17.74248 6066 ft 250 kts 16°
2026-05-06 11:49 59.91587 17.75267 6323 ft 258 kts 16°
2026-05-06 11:50 59.93331 17.76323 6620 ft 267 kts 16°
2026-05-06 11:50 59.95142 17.77416 7026 ft 277 kts 15°
2026-05-06 11:50 59.96997 17.78522 7478 ft 281 kts 15°
2026-05-06 11:50 59.98869 17.79638 7926 ft 281 kts 15°
2026-05-06 11:51 60.00723 17.80752 8372 ft 277 kts 15°
2026-05-06 11:51 60.02552 17.81864 8819 ft 273 kts 15°
2026-05-06 11:51 60.04357 17.82956 9265 ft 271 kts 14°
2026-05-06 11:51 60.06152 17.84027 9712 ft 268 kts 14°
2026-05-06 11:52 60.07942 17.85109 10166 ft 272 kts 13°
2026-05-06 11:52 60.09766 17.86210 10618 ft 277 kts 13°
2026-05-06 11:52 60.11619 17.87334 11070 ft 281 kts 12°
2026-05-06 11:52 60.13494 17.88470 11520 ft 284 kts 12°
2026-05-06 11:53 60.15397 17.89626 11972 ft 287 kts 11°
2026-05-06 11:53 60.17302 17.90787 12421 ft 289 kts 11°
2026-05-06 11:53 60.19232 17.91959 12872 ft 291 kts 10°
2026-05-06 11:53 60.20829 17.92933 13244 ft 292 kts
2026-05-06 11:54 60.22776 17.94120 13694 ft 293 kts
2026-05-06 11:54 60.24725 17.95301 14144 ft 294 kts
2026-05-06 11:54 60.26675 17.96478 14592 ft 294 kts
2026-05-06 11:54 60.28637 17.97669 15042 ft 294 kts
2026-05-06 11:55 60.30595 17.98847 15492 ft 294 kts
2026-05-06 11:55 60.32548 18.00021 15940 ft 294 kts
2026-05-06 11:55 60.34504 18.01186 16388 ft 294 kts
2026-05-06 11:55 60.36292 18.02231 16799 ft 292 kts
2026-05-06 11:56 60.38075 18.02870 17209 ft 280 kts 353°
2026-05-06 11:56 60.39995 18.02904 17668 ft 273 kts 346°
2026-05-06 11:56 60.41869 18.02618 18121 ft 268 kts 342°
2026-05-06 11:56 60.43707 18.02188 18570 ft 266 kts 341°
2026-05-06 11:57 60.45529 18.01679 19019 ft 264 kts 340°
2026-05-06 11:57 60.47327 18.01147 19467 ft 262 kts 339°
2026-05-06 11:57 60.49116 18.00589 19915 ft 260 kts 339°
2026-05-06 11:57 60.50895 18.00006 20355 ft 260 kts 337°
2026-05-06 11:58 60.52613 17.99460 20788 ft 259 kts 336°
2026-05-06 11:58 60.54241 17.98952 21198 ft 260 kts 337°
2026-05-06 11:58 60.55701 17.98544 21565 ft 260 kts 338°
2026-05-06 11:58 60.57488 17.98062 22013 ft 259 kts 337°
2026-05-06 11:59 60.59264 17.97589 22460 ft 258 kts 337°
2026-05-06 11:59 60.61038 17.97130 22908 ft 257 kts 337°
2026-05-06 11:59 60.62803 17.96669 23356 ft 256 kts 336°
2026-05-06 11:59 60.64559 17.96210 23799 ft 255 kts 336°
2026-05-06 12:00 60.66347 17.95725 23957 ft 265 kts 336°
2026-05-06 12:00 60.68202 17.95190 24006 ft 276 kts 336°
2026-05-06 12:00 60.70132 17.94627 24011 ft 286 kts 337°
2026-05-06 12:00 60.71906 17.94109 24008 ft 293 kts 338°
2026-05-06 12:01 60.73797 17.93573 24006 ft 299 kts 338°
2026-05-06 12:01 60.75574 17.93072 24005 ft 304 kts 338°
2026-05-06 12:01 60.77672 17.92477 24004 ft 307 kts 338°
2026-05-06 12:01 60.79530 17.91838 23995 ft 312 kts 350°
2026-05-06 12:02 60.81692 17.91128 24000 ft 320 kts 351°
2026-05-06 12:02 60.83908 17.90491 24004 ft 325 kts 352°
2026-05-06 12:02 60.86168 17.89894 24005 ft 330 kts 353°
2026-05-06 12:02 60.88448 17.89318 24004 ft 333 kts 353°
2026-05-06 12:03 60.90749 17.88748 24003 ft 335 kts 353°
2026-05-06 12:03 60.93068 17.88177 24003 ft 337 kts 353°
2026-05-06 12:03 60.95404 17.87570 24003 ft 339 kts 353°
2026-05-06 12:03 60.97735 17.86939 24003 ft 340 kts 352°
2026-05-06 12:04 61.00082 17.86292 24003 ft 341 kts 352°
2026-05-06 12:04 61.02425 17.85659 24003 ft 341 kts 353°
2026-05-06 12:04 61.04780 17.85045 24002 ft 342 kts 353°
2026-05-06 12:04 61.06779 17.84508 24002 ft 342 kts 352°
2026-05-06 12:05 61.09042 17.83885 23945 ft 344 kts 352°
2026-05-06 12:05 61.11370 17.83250 23729 ft 330 kts 353°
2026-05-06 12:05 61.13632 17.82658 23484 ft 329 kts 353°
2026-05-06 12:05 61.15897 17.82045 23235 ft 329 kts 352°
2026-05-06 12:06 61.18161 17.81420 22985 ft 329 kts 352°
2026-05-06 12:06 61.20056 17.80917 22776 ft 329 kts 353°
2026-05-06 12:06 61.22320 17.80315 22527 ft 329 kts 352°
2026-05-06 12:06 61.24083 17.79832 22328 ft 330 kts 352°
2026-05-06 12:07 61.26364 17.79209 21976 ft 333 kts 353°
2026-05-06 12:07 61.28667 17.78596 21583 ft 335 kts 352°
2026-05-06 12:07 61.30652 17.78052 21241 ft 336 kts 352°
2026-05-06 12:07 61.32966 17.77431 20841 ft 336 kts 353°
2026-05-06 12:08 61.35280 17.76814 20442 ft 336 kts 352°
2026-05-06 12:08 61.37599 17.76299 20051 ft 334 kts 343°
2026-05-06 12:08 61.39885 17.75819 19651 ft 329 kts 343°
2026-05-06 12:08 61.42140 17.75306 19250 ft 325 kts 342°
2026-05-06 12:09 61.44373 17.74770 18850 ft 323 kts 342°
2026-05-06 12:09 61.46598 17.74212 18449 ft 321 kts 342°
2026-05-06 12:09 61.48809 17.73634 18049 ft 320 kts 342°
2026-05-06 12:09 61.51011 17.73037 17649 ft 320 kts 342°
2026-05-06 12:10 61.53207 17.72450 17251 ft 320 kts 343°
2026-05-06 12:10 61.55410 17.71857 16851 ft 320 kts 343°
2026-05-06 12:10 61.57608 17.71248 16452 ft 320 kts 343°
2026-05-06 12:10 61.59458 17.70741 16116 ft 320 kts 344°
2026-05-06 12:11 61.61643 17.70143 15712 ft 313 kts 344°
2026-05-06 12:11 61.63771 17.69555 15309 ft 306 kts 345°
2026-05-06 12:11 61.65851 17.68953 14911 ft 299 kts 346°
2026-05-06 12:11 61.67884 17.68372 14507 ft 292 kts 347°
2026-05-06 12:12 61.69864 17.67828 14104 ft 285 kts 347°
2026-05-06 12:12 61.71526 17.67375 13758 ft 279 kts 347°
2026-05-06 12:12 61.73432 17.66850 13355 ft 274 kts 347°
2026-05-06 12:12 61.75299 17.66324 12954 ft 269 kts 347°
2026-05-06 12:13 61.76641 17.65940 12662 ft 267 kts 347°
2026-05-06 12:13 61.78193 17.65491 12321 ft 264 kts 347°
2026-05-06 12:13 61.79980 17.64969 11925 ft 261 kts 347°
2026-05-06 12:13 61.81772 17.64441 11524 ft 259 kts 347°
2026-05-06 12:14 61.83548 17.63914 11124 ft 257 kts 347°
2026-05-06 12:14 61.85171 17.63489 10757 ft 258 kts 351°
2026-05-06 12:14 61.86958 17.63338 10358 ft 258 kts 354°
2026-05-06 12:14 61.88746 17.63347 9958 ft 257 kts 356°
2026-05-06 12:15 61.90532 17.63420 9558 ft 257 kts 356°
2026-05-06 12:15 61.92312 17.63515 9158 ft 256 kts 357°
2026-05-06 12:15 61.94088 17.63619 8760 ft 256 kts 357°
2026-05-06 12:15 61.95495 17.63723 8443 ft 256 kts 358°
2026-05-06 12:16 61.97271 17.63874 8040 ft 255 kts 358°
2026-05-06 12:16 61.98718 17.64004 7718 ft 255 kts 358°
2026-05-06 12:16 62.00486 17.64166 7317 ft 255 kts 358°
2026-05-06 12:16 62.02258 17.64325 6916 ft 255 kts 358°
2026-05-06 12:17 62.04032 17.64481 6514 ft 255 kts 358°
2026-05-06 12:17 62.05485 17.64606 6188 ft 255 kts 358°
2026-05-06 12:17 62.07255 17.64755 5787 ft 255 kts 358°
2026-05-06 12:17 62.08699 17.64872 5461 ft 255 kts 358°
2026-05-06 12:18 62.10475 17.65009 5060 ft 255 kts 358°
2026-05-06 12:18 62.12241 17.65136 4662 ft 255 kts 358°
2026-05-06 12:18 62.13717 17.65236 4329 ft 255 kts 358°
2026-05-06 12:18 62.15492 17.65346 3929 ft 255 kts 358°
2026-05-06 12:19 62.17027 17.65434 3583 ft 255 kts 358°
2026-05-06 12:19 62.18801 17.65526 3182 ft 255 kts 358°
2026-05-06 12:19 62.20570 17.65609 2782 ft 256 kts 358°
2026-05-06 12:19 62.21802 17.65632 2617 ft 251 kts 355°
2026-05-06 12:20 62.23489 17.65288 2520 ft 238 kts 350°
2026-05-06 12:20 62.25094 17.64967 2480 ft 226 kts 352°
2026-05-06 12:20 62.26620 17.64695 2471 ft 214 kts 351°
2026-05-06 12:20 62.28052 17.64274 2469 ft 203 kts 346°
2026-05-06 12:21 62.29384 17.63603 2469 ft 191 kts 340°
2026-05-06 12:21 62.30617 17.62672 2480 ft 186 kts 334°
2026-05-06 12:21 62.31735 17.61589 2525 ft 156 kts 329°
2026-05-06 12:21 62.32613 17.60637 2439 ft 131 kts 327°
2026-05-06 12:22 62.33361 17.59810 2408 ft 113 kts 327°
2026-05-06 12:22 62.34016 17.59117 2385 ft 97 kts 327°
2026-05-06 12:22 62.34692 17.58424 2456 ft 104 kts 328°
2026-05-06 12:22 62.35250 17.57921 2755 ft 108 kts 329°
2026-05-06 12:23 62.36015 17.57203 3283 ft 114 kts 332°
2026-05-06 12:23 62.36783 17.56535 3537 ft 127 kts 332°
2026-05-06 12:23 62.37687 17.55885 2958 ft 139 kts 339°
2026-05-06 12:23 62.38571 17.55417 2823 ft 127 kts 340°
2026-05-06 12:24 62.39471 17.54791 2083 ft 150 kts 334°
2026-05-06 12:24 62.40419 17.53995 1789 ft 136 kts 334°
2026-05-06 12:24 62.41256 17.53312 1635 ft 124 kts 334°
2026-05-06 12:24 62.42053 17.52691 1463 ft 128 kts 335°
2026-05-06 12:25 62.42976 17.51964 1807 ft 148 kts 335°
2026-05-06 12:25 62.43982 17.51193 1967 ft 163 kts 336°
2026-05-06 12:25 62.45069 17.50377 1886 ft 164 kts 337°
2026-05-06 12:25 62.46073 17.49639 1604 ft 148 kts 336°
2026-05-06 12:26 62.47092 17.48853 1219 ft 167 kts 336°
2026-05-06 12:26 62.48172 17.47979 854 ft 159 kts 336°
2026-05-06 12:26 62.49156 17.47215 575 ft 141 kts 338°
2026-05-06 12:26 62.50108 17.46491 457 ft 145 kts 338°
2026-05-06 12:27 62.51057 17.45776 266 ft 146 kts 338°
2026-05-06 12:27 62.51983 17.45074 54 ft 135 kts 337°
2026-05-06 12:27 62.52661 17.44526 24 ft 48 kts 335°
2026-05-06 12:27 62.52744 17.44454 24 ft 3 kts 340°
2026-05-06 12:28 62.52776 17.44364 24 ft 7 kts 268°
2026-05-06 12:28 62.52752 17.44233 24 ft 30 kts 248°
2026-05-06 12:28 62.52687 17.43852 24 ft 8 kts 249°
2026-05-06 12:28 62.52679 17.43806 24 ft 0 kts 248°
2026-05-06 12:29 62.52678 17.43805 24 ft 0 kts 248°
2026-05-06 12:30 62.52678 17.43804 24 ft 0 kts 248°
2026-05-06 12:31 62.52678 17.43803 24 ft 0 kts 248°